Location: ????????
(55.0559°N, 39.1270°E)
Time: 00:20:04
(UTC+00:00)

Cosmos 1544 Rocket - Pass Details

Date: 15 November 2025
Orbit: 599 x 622 km, 82.5° (Epoch: 12 December)

Event Time Altitude Azimuth Distance (km) Brightness Sun altitude
Rises 03:58:04 0° 350° (N) 2,900 6.7 -8.2°
Reaches altitude 10° 04:00:21 10° 356° (N) 1,993 5.9 -7.9°
Maximum altitude 04:04:41 53° 73° (ENE) 768 4.4 -7.3°
Drops below altitude 10° 04:09:00 10° 151° (SSE) 1,989 7.0 -6.8°
Sets 04:11:16 0° 156° (SSE) 2,892 7.8 -6.5°
